sat.trackr.live / text

‹ back to catalog

STARLINK-31331

NORAD 58946 · 2024-027R

PAYLOAD ACTIVE UNKNOWN

§ Identity

Operator
Country
US
Launch date
2024-02-10
Launch site
AFWTR
Launch vehicle
Mass (kg)
RCS (m²)

Purposes: comms

External: N2YO · Heavens-Above · Gunter

§ Orbital elements

Epoch: 2026-05-24T15:51:23.451840Z

Period
94.01 min
Inclination
53.1602°
Eccentricity
0.0001305
Mean motion
15.31687905 rev/d
Perigee alt
469.9 km
Apogee alt
471.7 km
Semi-major
6,848.9 km
B*
-1.9424e-5
RAAN
316.4769°
Arg perigee
84.5294°
Mean anomaly
275.5856°
Rev number
12,896

§ Raw data

STARLINK-313311 58946U 24027R   26144.66068810 -.00000968  00000+0 -19424-4 0  99972 58946  53.1602 316.4769 0001305  84.5294 275.5856 15.31687905128967

JSON: /api/v1/satellites/58946 · /tle

For live sub-satellite position, see the globe view (requires WebGL).

§ Visibility from observer

Set your observer location to see the next 7 days of passes ≥ 10°. The values pass through the URL so the page stays shareable.

No JS? Fill the form by hand. The geolocation button needs JavaScript.